Location: Proctor
(47.8934°N, 114.3048°W)
Time: 12:46:50
(UTC+00:00)

AIST 2D - Pass Details

Date: 02 July 2022
Orbit: 433 x 443 km, 97.0° (Epoch: 11 August)

Event Time Altitude Azimuth Distance (km) Brightness Sun altitude
Rises 04:25:45 0° 27° (NNE) 2,426 ? -6.6°
Reaches altitude 10° 04:28:12 10° 46° (NE) 1,553 ? -6.9°
Maximum altitude 04:30:39 19° 93° (E) 1,115 ? -7.2°
Drops below altitude 10° 04:33:05 10° 141° (SE) 1,547 ? -7.5°
Enters shadow 04:33:06 10° 141° (SE) 1,555 ? -7.5°
